Regional Weather Roundup
Issued by NWS

Home | Current Version | Previous Version | Graphics & Text | Print | Product List | Glossary On
Versions: 1 2 3 4 5 6 7 8 9 10 11 12 13 14 15 16 17 18 19 20 21 22 23 24 25 26 27 28 29 30 31 32 33 34 35 36 37 38 39 40 41 42 43 44 45 46 47 48 49 50
000
ASUS45 KBOU 180010
RWRCO

WEATHER ROUNDUP FOR COLORADO
NATIONAL WEATHER SERVICE DENVER/BOULDER CO
500 PM MST SUN DEC 17 2017

NOTE: "FAIR" INDICATES FEW OR NO CLOUDS BELOW 12000 FEET WITH NO
SIGNIFICANT WEATHER AND/OR OBSTRUCTIONS TO VISIBILITY.

COZ001>005-013-030-031-180100-
...NORTHWEST COLORADO...

CITY           SKY/WX    TMP DP  RH WIND       PRES   REMARKS
CRAIG          FAIR      24  16  71 CALM      30.05S
HAYDEN         FAIR      28  20  71 S6        30.07R WCI  22
MEEKER         FAIR      31  17  56 NW5       30.04R WCI  26
RABBIT EARS PA CLOUDY    16  14  93 W14G24    29.98R FOG     WCI   1
STEAMBOAT SPGS CLOUDY    28  20  71 CALM      30.05R
WALDEN         FAIR      21  14  73 S9        30.01R WCI  11
$$

COZ006>008-011-180100-
...WEST CENTRAL VALLEYS...

CITY           SKY/WX    TMP DP  RH WIND       PRES   REMARKS
GRAND JUNCTION FAIR      39  11  31 NW5       30.03R
MONTROSE       FAIR      34   6  31 N3        30.05R
EAGLE          FAIR      35   9  33 W5        30.02R WCI  31
RIFLE          FAIR      34  10  37 S7        30.02R WCI  28
DELTA          FAIR      40   9  28 E6        30.03R
NUCLA          FAIR      43   1  17 CALM      30.05R
$$

COZ017>023-064>068-180100-
...SOUTHWEST COLORADO...

CITY           SKY/WX    TMP DP  RH WIND       PRES   REMARKS
DURANGO        FAIR      41   6  23 SW8       30.00R
CORTEZ         FAIR      39   8  27 VRB6      30.01R
PAGOSA SPRINGS FAIR      40  -1  17 CALM      30.01R
TELLURIDE      FAIR      32   0  26 W8        30.04S WCI  24
WOLF CREEK PAS FAIR      19   1  45 SW14G23   30.09R WCI   6
$$

COZ009-010-012-014-032>034-037-058>063-180100-
...CENTRAL COLORADO...

CITY           SKY/WX    TMP DP  RH WIND       PRES   REMARKS
ASPEN          FAIR      24   8  50 CALM      30.00R
BUENA VISTA    FAIR      38  -1  19 W9G16     29.94R
COPPER MTN     NOT AVBL
BERTHOUD PASS  FAIR       9  -4  56 N12G32    29.95R WCI  -6
COTTONWOOD PAS FAIR      36   0  21 W7G24     29.96R
GUNNISON       FAIR      36   0  21 VRB3      29.99
KREMMLING      FAIR      32  21  64 CALM      30.02R
LEADVILLE      FAIR      25   0  33 NW9G18    29.98R WCI  15
MONARCH PASS   FAIR      19   0  42 W35G41    30.09R WCI  -1
SALIDA         FAIR      41  -3  16 SW10G16   30.01R
SUNLIGHT       FAIR      19   5  53 SW9       30.06R WCI   9
WILKERSON PASS FAIR      25  -2  30 SW9G18    29.98R WCI  15
$$

COZ069>075-180100-
...SAN LUIS VALLEY/SANGRE DE CRISTO MOUNTAINS...

CITY           SKY/WX    TMP DP  RH WIND       PRES   REMARKS
ALAMOSA        FAIR      32  14  47 SW5       29.95R WCI  27
DEL NORTE      FAIR      29   8  41 N8        29.98R WCI  22
LA VETA PASS   FAIR      28   5  37 SW9G18      N/A  WCI  20
SAGUACHE       FAIR      27   7  43 CALM      29.98S
$$

COZ035-036-038>040-180100-
...NORTHERN COLORADO FRONT RANGE...

CITY           SKY/WX    TMP DP  RH WIND       PRES   REMARKS
DENVER INTL AP FAIR      33  21  61 SE6       29.88R WCI  28
DMNS CITY PARK NOT AVBL
AURORA         PTCLDY    31  21  67 SE12      29.88F WCI  21
FRONT RANGE AP PTCLDY    34  25  69 SE12      29.89S WCI  25
ERIE MUNI ARPT FAIR      34  23  64 E3        29.94R
BOULDER MUN AP FAIR      34  27  75 CALM      29.88R
CENTENNIAL     FAIR      33  23  66 N6        29.88R WCI  28
BROOMFIELD     PTCLDY    36  25  64 SE5       29.88F
FORT COLLINS   FAIR      33  26  75 CALM      29.91R
LONGMONT       FAIR      35  26  68 CALM      29.91R
$$

COZ041-046-047-076>085-087-088-180100-
...PIKES PEAK/PALMER DIVIDE AND SOUTHERN FOOTHILLS...

CITY           SKY/WX    TMP DP  RH WIND       PRES   REMARKS
COLO. SPRINGS  MOCLDY    31  22  69 SE3       29.93S
A. F. ACADEMY  FAIR      27  20  74 S5        29.91R WCI  22
SCHRIEVER AFB  MOCLDY    28  21  76 SW3       29.93S
CHEYENNE MTN   MOCLDY    28  23  83 CALM      29.86R
ELLICOTT         N/A    N/A N/A N/A SW7       29.92R
FALCON         FAIR      26  20  78 W5        29.92S WCI  20
FORT CARSON    FAIR      28  22  75 S6        29.92R WCI  22
LIMON          FAIR      29  20  69 S5        29.93R WCI  24
MONUMENT HILL  FAIR      28  21  74 SW7       29.90R WCI  21
CANON CITY     FAIR      32  27  80 CALM      29.93S
WALSENBURG     FAIR      34  23  64 CALM      29.92S
TRINIDAD       FAIR      34  23  64 SE5       29.93S WCI  30
$$

COZ042>045-048>051-090-091-180100-
...NORTHEAST COLORADO...

CITY           SKY/WX    TMP DP  RH WIND       PRES   REMARKS
GREELEY ARPT   FAIR      33  25  72 CALM      29.91S
AKRON          FAIR      29  22  75 SW7       29.91R WCI  22
BURLINGTON     FAIR      30  23  75 SW5       29.94F WCI  25
WRAY           FAIR      32  27  80 SW5       29.94S WCI  27
YUMA           FAIR      27  21  80 SW8       29.92S WCI  18
STERLING       FAIR      32  25  74 S5        29.90S WCI  27
HOLYOKE        FAIR      34  25  69 SW9       29.92R WCI  26
FORT MORGAN    FAIR      33  23  66 SW3       29.92R
$$

COZ086-089-092>099-180100-
...SOUTHEAST COLORADO...

CITY           SKY/WX    TMP DP  RH WIND       PRES   REMARKS
PUEBLO         FAIR      32  22  66 NE6       29.95R WCI  26
LA JUNTA       FAIR      37  25  61 S6        29.96S
LAMAR          FAIR      34  23  64 S9        29.96R WCI  27
SPRINGFIELD      N/A     28  22  78 S7        29.98R WCI  21
$$



USA.gov is the U.S. government's official web portal to all federal, state and local government web resources and services.